Location: Stuttgart
(48.8069°N, 9.1544°E)
Time: 03:35:46
(UTC+02:00)

ISS - Visible Passes

Search period start: 21 September 2017 00:00
Search period end: 01 October 2017 00:00
Orbit: 402 x 407 km, 51.6° (Epoch: 21 September)

Date Brightness Start Highest point End Pass type
(mag) Time Alt. Az. Time Alt. Az. Time Alt. Az.
25 Sep -1.4 21:18:46 10° SSW 21:19:25 14° SSW 21:19:25 14° SSW visible
26 Sep -2.4 20:26:59 10° SSW 20:29:34 22° SE 20:29:45 22° SE visible
27 Sep -3.1 21:10:07 10° SW 21:12:33 44° SW 21:12:33 44° SW visible
28 Sep -3.3 20:17:56 10° SW 20:21:02 40° SSE 20:22:31 24° E visible
28 Sep -1.1 21:54:12 10° W 21:55:11 18° W 21:55:11 18° W visible
29 Sep -3.8 21:01:43 10° WSW 21:05:00 79° NNW 21:05:01 79° NNW visible
30 Sep -3.9 20:09:18 10° WSW 20:12:34 74° SSE 20:14:44 20° ENE visible
30 Sep -1.3 21:45:57 10° W 21:47:23 23° WNW 21:47:23 23° WNW visible
